Temp
45 37 32 34 40 41 36 35 34 40 42 40 40 43 47 52 47 49 50 50 53 54 56 56 56 62 63 62 62 63 63 63 64 62 61 65 65 65 66 67 68 67 68 67
39 34 39 45 44 40 39 33 33 40 43 40 40 38 47 51 50 49 52 53 54 54 51 51 51 51 57 61 62 63 64 63 64 65 65 63 63 64 68 68 68 68 67 67
36 38 44 43 40 37 37 35 35 36 40 40 39 37 44 49 50 50 49 50 56 54 50 46 46 46 47 48 50 56 61 63 64 64 62 63 64 65 65 65 65 66 67 66
35 41 41 38 37 40 32 41 39 38 34 28 36 27 39 45 48 48 51 51 47 46 44 43 43 43 43 45 47 50 55 63 63 63 63 65 65 63 64 67 66 66 67 67
33 36 36 35 38 42 37 43 40 38 35 32 33 28 35 41 41 47 47 44 40 40 40 39 40 42 42 43 45 46 51 55 56 59 64 64 64 66 64 64 64 64 65 66
35 41 40 39 43 44 44 40 38 36 34 25 31 29 31 36 41 43 42 41 40 39 39 39 40 42 40 41 42 44 46 49 52 54 56 58 62 62 61 63 62 62 63 63
33 35 40 42 37 41 40 36 23 20 16 20 27 28 34 39 37 39 43 38 39 40 38 38 36 36 38 38 38 42 41 43 47 50 49 50 53 56 60 60 60 61 59 56
23 24 35 42 38 35 36 35 25 12 13 22 31 26 33 36 38 38 38 38 38 37 37 36 35 35 35 36 37 37 38 38 41 46 45 46 47 49 50 50 51 50 49 48
25 26 36 39 41 41 35 31 36 26 15 21 28 31 36 38 37 36 35 35 34 35 35 34 33 33 33 33 34 36 36 37 38 40 44 43 44 44 45 47 48 47 48 49
30 24 33 36 41 40 37 39 28 24 13 13 24 29 30 33 35 34 32 33 33 34 33 32 31 31 31 32 33 34 35 35 37 39 42 42 42 42 42 43 42 43 43 45
31 27 30 35 31 29 33 28 30 29 25 18 17 26 34 34 35 35 34 33 33 32 32 30 30 31 31 31 31 32 33 33 35 38 39 40 40 40 40 40 40 40 41 42
34 27 25 28 34 36 33 32 33 25 20 22 25 26 36 35 36 36 35 35 32 32 31 30 30 30 30 30 30 31 32 32 34 37 38 38 39 39 38 38 38 39 38 39
36 24 19 24 29 32 31 33 34 33 30 22 20 25 36 34 35 36 34 33 33 30 28 29 29 28 28 28 28 30 31 31 33 33 36 36 36 36 36 36 37 37 37 37
38 28 21 16 23 26 26 30 30 25 18 25 26 27 31 34 34 35 35 33 32 31 30 29 28 27 27 28 27 28 32 34 34 34 34 32 33 34 34 34 34 34 35 35
30 20 25 24 25 27 23 27 29 28 26 20 25 26 33 35 34 36 36 34 32 30 30 29 28 26 26 26 26 27 30 31 33 32 32 31 32 33 32 32 32 32 32 32
31 18 21 18 25 27 23 26 26 23 23 22 24 25 36 37 35 33 34 33 32 32 31 31 31 30 29 29 27 29 26 27 29 29 29 31 31 31 30 30 30 30 30 29
24 16 14 9 18 19 16 24 27 28 28 25 20 29 32 33 35 35 35 33 33 33 32 31 30 30 30 28 29 25 25 27 27 27 27 27 28 27 27 28 28 27 27 28
17 14 9 11 11 6 23 26 26 27 30 29 30 31 31 32 32 33 35 34 33 33 32 31 29 28 28 27 26 26 26 26 26 25 26 26 26 26 26 26 25 25 26 26
26 16 6 9 2 12 21 23 23 24 23 29 28 29 30 29 28 28 32 32 32 33 32 30 29 28 26 25 26 25 25 24 24 24 24 25 25 25 25 24 23 24 24 25
25 19 13 -1 3 3 21 23 26 28 16 27 27 27 27 30 27 28 28 28 30 30 30 28 27 26 25 25 26 25 23 23 22 23 23 24 24 24 23 23 23 24 25 26
2 -1 -1 6 -5 8 21 26 28 13 20 28 29 28 27 27 29 29 27 27 26 27 27 26 26 26 27 26 25 24 23 23 23 24 23 23 24 24 23 23 23 24 24 24
10 3 -2 1 -3 4 23 25 23 27 27 30 28 27 28 27 28 27 26 26 24 24 25 25 24 25 27 27 27 24 23 23 22 21 20 20 21 23 23 22 20 21 21 19
9 15 8 13 14 21 21 25 28 29 31 29 29 29 28 27 21 19 19 18 19 19 22 21 22 21 23 26 26 24 22 20 19 18 17 15 17 20 21 19 18 17 17 16
16 14 16 14 17 21 23 24 27 29 28 30 30 30 29 23 17 19 15 16 15 14 15 13 18 19 21 23 23 25 20 16 15 14 12 13 14 14 14 17 17 15 14 13
18 18 16 16 18 15 20 21 26 24 22 22 19 21 24 21 22 20 17 16 15 13 9 11 17 17 20 20 17 19 16 16 15 13 12 12 12 11 11 13 12 15 15 17
18 19 19 21 24 24 23 19 17 19 20 23 19 17 15 18 23 17 18 15 15 14 10 11 12 12 10 8 8 7 11 13 12 10 10 9 10 7 9 9 9 20 23 24
MSLP
1013.57 1013.92 1014.16 1015.01 1015.34 1015.54 1016.53 1017.62 1017.78 1017.52 1017.51 1017.26 1016.91 1016.25 1015.09 1014.27 1013.95 1014.08 1014.13 1014.60 1014.81 1015.04 1015.38 1015.53 1015.59 1015.36 1015.55 1015.88 1016.34 1016.70 1017.04 1017.41 1017.98 1018.48 1018.93 1019.10 1019.17 1019.38 1019.66 1019.73 1020.05 1020.34 1020.61 1021.03
1014.28 1014.14 1014.62 1015.13 1015.33 1015.75 1016.35 1017.47 1017.87 1017.55 1017.39 1017.81 1017.54 1016.79 1015.33 1014.51 1014.00 1013.91 1014.02 1014.76 1015.14 1015.55 1016.09 1016.50 1016.57 1016.38 1016.11 1016.59 1016.63 1016.64 1016.81 1017.25 1017.48 1017.93 1018.30 1018.63 1018.81 1018.87 1018.94 1019.16 1019.51 1019.87 1020.29 1020.59
1014.09 1014.14 1014.41 1014.87 1015.27 1016.00 1016.24 1016.90 1017.32 1017.40 1017.95 1018.18 1017.69 1016.53 1015.70 1014.95 1014.15 1014.40 1014.69 1015.17 1015.75 1016.61 1017.29 1017.73 1017.90 1017.96 1017.69 1017.70 1017.70 1017.64 1017.26 1017.15 1017.44 1017.52 1018.23 1018.37 1018.62 1018.70 1018.97 1019.27 1019.44 1019.59 1019.87 1020.17
1014.66 1014.33 1014.53 1014.85 1015.28 1015.69 1016.11 1016.57 1016.97 1017.39 1018.02 1018.60 1018.54 1017.53 1015.73 1015.34 1014.84 1014.75 1015.21 1016.07 1017.07 1017.83 1018.69 1019.26 1019.45 1019.23 1019.27 1018.98 1018.56 1018.13 1017.78 1017.35 1017.59 1017.83 1018.01 1018.17 1018.15 1018.42 1018.43 1018.45 1018.75 1018.92 1019.21 1019.55
1015.05 1014.72 1014.80 1014.86 1015.04 1015.64 1016.08 1016.60 1017.07 1017.53 1018.11 1018.58 1018.90 1018.53 1016.36 1015.92 1015.82 1015.60 1016.47 1017.57 1018.44 1019.31 1019.94 1020.46 1020.80 1020.72 1020.41 1019.98 1019.53 1019.18 1018.65 1018.41 1018.44 1018.33 1017.93 1018.13 1018.15 1018.18 1018.32 1018.49 1018.76 1018.96 1018.99 1019.01
1015.29 1014.96 1015.06 1014.85 1015.03 1015.17 1015.52 1016.92 1017.37 1017.89 1018.55 1019.27 1018.60 1018.55 1017.08 1016.98 1017.07 1017.26 1018.24 1019.01 1019.50 1020.32 1020.86 1021.21 1021.55 1021.59 1021.49 1021.05 1020.58 1020.20 1019.72 1019.65 1019.47 1019.18 1018.88 1018.69 1018.41 1018.48 1018.58 1018.74 1018.83 1019.10 1019.27 1019.26
1015.74 1015.60 1014.99 1014.71 1015.17 1015.35 1015.68 1016.81 1018.31 1019.27 1019.70 1019.64 1019.03 1019.04 1017.80 1017.99 1018.55 1018.88 1019.05 1020.08 1020.54 1021.46 1021.58 1021.92 1022.27 1022.47 1022.47 1022.21 1021.90 1021.35 1020.85 1020.71 1020.30 1020.14 1020.03 1019.92 1019.47 1019.06 1018.93 1019.04 1019.24 1019.31 1019.66 1020.21
1016.38 1016.60 1015.54 1014.82 1014.86 1015.12 1015.97 1016.48 1017.55 1018.92 1020.52 1020.32 1019.80 1018.99 1018.39 1018.94 1019.26 1019.51 1019.95 1020.63 1021.17 1022.08 1022.73 1022.87 1023.08 1023.46 1023.51 1023.18 1022.72 1022.43 1022.07 1021.81 1021.48 1021.01 1020.80 1020.81 1020.42 1020.10 1020.02 1019.97 1020.11 1020.58 1020.82 1021.27
1016.45 1016.38 1015.97 1015.32 1015.19 1015.67 1016.56 1017.29 1017.97 1019.09 1021.49 1020.65 1019.48 1018.96 1019.10 1019.60 1020.03 1020.57 1021.13 1021.51 1021.95 1022.86 1023.23 1023.66 1023.52 1024.14 1024.06 1023.93 1023.61 1023.34 1022.84 1022.61 1022.38 1022.08 1021.62 1021.49 1021.45 1021.28 1021.22 1021.11 1020.89 1021.14 1021.47 1021.71
1016.34 1016.79 1016.66 1016.23 1016.28 1016.85 1016.29 1017.32 1018.52 1019.44 1020.84 1020.47 1019.58 1019.13 1019.43 1020.05 1020.63 1021.28 1021.88 1022.36 1022.94 1023.45 1023.67 1024.02 1024.43 1024.84 1025.02 1024.83 1024.46 1023.94 1023.53 1023.33 1023.02 1022.73 1022.32 1022.19 1022.32 1022.37 1022.15 1022.17 1022.11 1021.99 1022.19 1022.64
1016.50 1016.88 1017.68 1017.07 1017.47 1017.28 1017.27 1017.88 1018.80 1018.97 1019.85 1020.10 1020.01 1019.71 1019.87 1020.10 1020.84 1021.30 1022.05 1022.57 1023.03 1023.59 1024.21 1024.72 1024.92 1025.19 1025.31 1025.09 1024.77 1024.64 1024.29 1023.97 1023.63 1023.26 1023.02 1022.89 1023.11 1023.25 1023.03 1023.12 1023.17 1022.98 1023.07 1023.22
1016.82 1017.45 1018.42 1018.78 1018.71 1018.51 1018.18 1018.32 1018.66 1019.20 1020.31 1020.44 1020.23 1020.40 1019.92 1020.15 1021.09 1021.29 1022.01 1022.60 1023.14 1023.77 1024.58 1025.18 1025.39 1025.59 1025.55 1025.54 1025.43 1025.30 1025.12 1024.83 1024.57 1024.10 1023.77 1023.78 1023.98 1024.09 1024.01 1024.09 1024.19 1023.92 1023.88 1024.05
1017.28 1018.42 1019.61 1020.03 1019.87 1019.17 1018.95 1019.10 1019.09 1019.45 1019.95 1020.73 1020.85 1020.63 1020.09 1020.35 1020.95 1021.47 1021.98 1022.81 1023.39 1024.08 1024.72 1025.34 1025.68 1025.89 1025.91 1025.97 1025.98 1025.84 1025.65 1025.51 1025.26 1024.95 1024.81 1024.80 1024.86 1024.93 1024.97 1025.07 1025.12 1024.89 1024.77 1025.24
1017.89 1019.44 1020.14 1020.86 1020.48 1020.15 1020.07 1019.91 1019.94 1020.24 1021.33 1021.42 1021.22 1020.84 1020.81 1020.63 1021.02 1021.27 1021.86 1022.69 1023.68 1024.43 1024.76 1025.21 1025.73 1026.03 1026.09 1026.31 1026.43 1026.33 1026.14 1025.92 1025.78 1025.69 1025.62 1025.67 1025.74 1025.87 1026.09 1026.13 1026.01 1025.96 1026.01 1026.07
1019.34 1021.02 1021.75 1022.09 1021.74 1021.08 1020.88 1020.82 1021.02 1021.37 1021.74 1021.88 1021.77 1021.26 1020.47 1020.71 1021.09 1020.99 1021.15 1022.27 1023.53 1024.17 1024.66 1024.94 1025.36 1025.82 1026.30 1026.60 1026.62 1026.54 1026.63 1026.50 1026.43 1026.41 1026.45 1026.61 1026.78 1026.80 1026.87 1026.92 1026.94 1026.91 1027.05 1027.22
1020.91 1022.76 1023.28 1023.95 1023.27 1022.51 1022.21 1021.83 1021.66 1021.88 1022.16 1022.29 1022.12 1021.70 1020.64 1020.48 1020.41 1021.02 1021.65 1022.34 1022.97 1023.57 1024.12 1024.80 1025.06 1025.74 1026.43 1026.86 1027.05 1026.94 1027.05 1027.07 1026.99 1027.23 1027.39 1027.34 1027.24 1027.45 1027.70 1027.88 1027.99 1027.95 1028.07 1028.23
1022.52 1023.86 1025.13 1026.30 1025.37 1024.17 1023.54 1022.23 1021.83 1021.81 1021.83 1022.02 1022.25 1021.62 1021.35 1021.03 1021.06 1021.30 1021.66 1022.19 1022.64 1023.21 1023.80 1024.39 1024.94 1025.56 1026.44 1027.05 1027.44 1027.52 1027.51 1027.59 1027.55 1027.73 1028.06 1028.11 1028.00 1028.18 1028.55 1028.75 1028.87 1029.00 1029.11 1029.17
1023.72 1025.36 1026.81 1028.00 1027.31 1026.02 1023.71 1022.50 1022.08 1021.99 1021.92 1021.87 1021.96 1021.79 1021.76 1021.62 1021.49 1021.70 1021.97 1022.16 1022.48 1022.84 1023.53 1024.22 1024.86 1025.58 1026.27 1027.00 1027.43 1027.85 1027.89 1028.05 1028.27 1028.37 1028.53 1028.80 1028.83 1029.05 1029.27 1029.46 1029.62 1029.73 1029.85 1029.99
1024.69 1026.23 1028.78 1029.52 1029.15 1026.95 1024.20 1022.98 1022.46 1022.18 1022.04 1021.88 1022.13 1022.14 1022.05 1022.01 1022.00 1022.19 1022.53 1022.74 1022.74 1023.05 1023.66 1024.33 1024.92 1025.73 1026.39 1027.02 1027.50 1027.87 1028.40 1028.81 1028.92 1029.24 1029.51 1029.58 1029.56 1029.66 1029.76 1029.97 1030.11 1030.19 1030.38 1030.69
1026.41 1027.35 1029.00 1030.92 1029.92 1027.56 1024.36 1022.81 1022.21 1022.14 1022.41 1022.18 1022.38 1022.53 1022.59 1022.41 1022.79 1023.07 1023.21 1023.40 1023.19 1023.25 1023.64 1024.26 1025.06 1025.76 1026.51 1027.19 1027.75 1028.19 1028.66 1029.33 1029.80 1029.88 1030.01 1030.13 1030.18 1030.23 1030.42 1030.64 1030.75 1030.66 1030.65 1030.84
1029.26 1030.14 1031.27 1031.54 1030.41 1027.32 1024.27 1023.08 1022.68 1022.89 1023.00 1022.55 1022.75 1022.85 1022.98 1023.23 1023.37 1023.28 1023.49 1023.51 1023.61 1023.67 1023.94 1024.35 1025.15 1025.88 1026.47 1027.16 1027.80 1028.47 1029.00 1029.47 1029.84 1030.06 1030.18 1030.42 1030.63 1030.70 1030.85 1030.98 1031.24 1031.42 1031.38 1031.46
1029.60 1030.56 1031.86 1031.61 1030.12 1027.10 1024.07 1023.73 1023.21 1022.31 1022.41 1022.32 1022.51 1022.60 1022.81 1023.13 1023.28 1023.62 1023.84 1023.86 1024.15 1024.39 1024.70 1025.13 1025.41 1026.04 1026.58 1027.09 1027.78 1028.61 1029.11 1029.56 1030.00 1030.39 1030.64 1030.83 1030.93 1031.07 1031.21 1031.29 1031.46 1031.54 1031.66 1032.01
1029.14 1028.28 1029.00 1029.10 1027.06 1024.95 1023.95 1023.27 1022.46 1022.35 1022.34 1022.53 1022.65 1022.75 1022.99 1023.71 1024.01 1024.14 1024.48 1025.04 1024.98 1025.16 1025.54 1025.75 1026.04 1026.60 1027.15 1027.29 1027.68 1028.70 1029.22 1029.73 1030.14 1030.64 1031.03 1031.11 1031.24 1031.34 1031.54 1031.71 1032.01 1032.06 1032.10 1032.38
1027.54 1027.19 1027.62 1027.54 1025.23 1024.74 1023.82 1023.23 1022.85 1022.61 1022.76 1022.63 1022.92 1023.14 1023.49 1024.10 1024.22 1024.56 1025.12 1025.51 1025.66 1025.86 1026.17 1026.32 1026.46 1026.97 1027.44 1027.72 1027.95 1028.31 1029.14 1029.70 1030.37 1030.99 1031.34 1031.61 1031.81 1031.88 1031.92 1031.85 1032.04 1032.19 1032.52 1032.66
1026.37 1026.47 1025.94 1025.53 1024.48 1024.41 1023.44 1023.14 1022.65 1022.80 1023.09 1023.34 1023.48 1023.58 1023.87 1024.27 1024.64 1025.13 1025.41 1025.55 1025.78 1026.26 1026.66 1026.57 1026.89 1027.20 1027.40 1027.83 1028.39 1028.76 1029.36 1029.82 1030.45 1030.79 1031.20 1031.70 1032.17 1032.09 1032.18 1032.29 1032.32 1032.28 1032.34 1032.28
1025.14 1024.21 1024.35 1023.30 1022.82 1022.98 1023.06 1022.63 1022.72 1023.51 1023.61 1023.53 1023.93 1024.31 1024.25 1024.45 1024.85 1025.14 1025.34 1025.48 1025.78 1026.20 1026.69 1027.03 1027.17 1027.41 1027.83 1028.28 1028.96 1029.12 1029.42 1029.74 1030.50 1031.10 1031.60 1031.78 1031.98 1032.18 1032.37 1032.50 1032.63 1032.05 1031.81 1031.72
Wind_Speed
6 5 10 5 4 9 12 4 3 5 3 2 5 10 11 6 1 4 6 6 6 7 1 5 5 4 7 8 7 9 10 9 8 4 4 4 5 4 5 5 8 7 7 8
5 6 7 9 6 7 7 5 4 4 7 3 1 11 16 7 4 4 5 6 6 1 5 6 8 8 3 2 5 7 9 9 9 7 6 3 3 3 5 6 7 7 7 8
8 4 9 8 6 7 1 8 6 3 5 4 6 4 9 4 4 4 2 2 4 4 5 7 9 9 8 8 7 5 3 7 6 6 3 2 2 2 2 2 3 5 7 7
3 1 10 9 7 6 5 5 5 8 6 1 1 4 4 5 6 4 6 2 7 8 7 7 8 9 9 8 7 7 7 2 5 6 6 9 6 5 4 6 6 7 10 9
1 4 7 6 5 6 4 6 5 4 5 3 5 2 5 2 4 4 7 7 8 7 7 7 8 7 6 9 9 8 8 10 9 7 4 6 7 4 1 2 4 4 5 8
1 1 5 6 4 8 9 5 5 4 3 3 6 5 5 3 3 5 3 5 7 7 6 7 7 8 9 9 10 9 9 10 10 8 8 5 3 4 3 3 3 3 2 0
3 4 4 2 8 2 3 15 2 2 2 4 1 2 5 4 4 3 3 6 8 6 7 8 10 10 10 11 10 9 10 10 10 8 9 9 7 4 2 1 2 2 2 3
4 3 3 0 4 7 3 4 5 7 3 4 1 5 3 3 4 6 8 8 9 8 7 8 9 8 8 8 9 8 9 8 9 8 8 8 9 5 4 5 5 5 5 4
5 2 2 2 4 5 4 3 2 7 1 2 4 3 4 3 5 6 5 6 6 5 6 6 8 6 7 7 8 7 8 7 8 7 7 8 8 8 7 7 7 6 6 5
3 5 2 2 5 1 5 7 2 3 3 2 1 1 2 4 4 3 3 4 3 3 5 5 5 5 5 5 4 7 7 7 7 7 8 8 8 8 8 8 8 8 7 6
4 4 0 2 5 1 3 2 4 5 3 3 3 2 1 2 5 4 4 4 3 3 4 3 4 4 4 5 6 6 7 8 7 8 8 8 8 8 8 8 8 8 8 7
2 4 4 3 3 3 1 3 3 4 3 1 2 2 2 2 3 4 4 4 3 3 3 3 3 4 5 5 5 6 6 6 6 6 7 8 8 8 8 9 8 8 9 9
2 2 4 4 3 3 3 2 3 5 3 2 4 3 2 3 1 3 5 4 2 3 2 2 3 4 4 5 5 5 5 5 5 6 7 7 8 8 9 9 9 9 10 8
5 4 4 5 2 3 4 3 3 5 4 3 3 1 4 6 6 3 3 4 5 4 4 2 2 3 3 4 4 5 6 6 5 6 7 8 8 8 8 8 9 10 10 10
5 5 3 5 4 3 2 6 5 3 3 5 4 4 5 4 2 4 3 6 6 6 5 5 3 2 2 3 4 5 6 6 6 7 8 8 7 8 9 9 10 10 10 9
4 2 2 6 8 7 3 3 6 3 2 2 3 4 4 4 3 2 4 6 6 6 6 6 5 4 3 2 2 4 4 5 6 7 7 7 8 9 9 9 9 10 10 9
3 5 3 2 5 5 5 5 4 2 3 6 4 7 4 5 7 5 6 5 7 6 6 7 6 6 5 5 3 4 4 4 6 6 6 6 7 8 7 7 8 8 8 8
5 5 3 2 3 1 5 3 2 2 2 4 3 5 4 5 6 7 5 4 6 6 6 7 7 5 5 5 5 4 4 5 5 6 6 5 6 7 6 7 7 6 6 7
6 5 5 5 3 5 3 4 6 6 3 4 3 4 4 5 3 1 5 4 2 7 7 6 6 6 6 6 5 6 5 4 5 5 4 4 5 5 5 6 5 5 5 6
7 9 6 3 6 5 6 1 1 3 4 4 2 2 4 5 3 4 5 4 5 3 6 7 7 6 7 6 6 6 6 5 4 4 4 3 4 4 5 5 4 3 4 5
5 6 5 2 1 9 7 2 0 8 6 5 4 4 1 0 4 4 4 4 2 2 5 8 7 7 7 7 6 5 5 5 4 4 4 4 3 4 4 4 3 3 4 5
5 6 3 4 4 8 6 4 6 6 3 6 5 3 2 3 5 4 5 4 2 4 5 5 7 6 7 8 7 6 6 5 5 4 4 4 3 2 2 4 3 3 4 5
2 8 7 9 8 5 5 3 4 4 5 5 5 5 4 3 4 2 4 3 2 3 3 3 6 6 3 7 8 8 6 7 5 5 4 2 3 3 3 3 2 2 3 3
4 4 3 4 5 9 7 5 5 5 6 4 5 5 5 5 4 5 4 4 4 3 5 3 6 8 7 5 5 4 7 6 6 5 4 2 2 2 2 2 2 3 2 3
5 5 6 6 7 5 6 8 7 4 3 3 3 4 6 5 6 5 4 5 5 5 3 4 7 6 7 7 5 4 6 7 6 5 5 4 1 2 2 2 2 1 2 3
7 8 6 9 6 6 6 5 4 5 7 8 5 3 4 4 6 3 5 4 4 6 3 3 3 3 3 4 3 4 5 6 6 4 3 3 3 2 2 2 1 2 4 5
Wind_Direction
160 138 198 126 130 113 117 94 155 97 49 30 341 293 298 304 249 231 208 231 247 241 271 48 11 223 169 164 162 178 178 182 168 161 166 183 187 181 188 181 190 187 185 184
138 204 152 147 133 126 123 110 251 111 114 208 205 293 290 293 259 205 203 189 224 163 84 32 22 31 43 165 203 199 195 183 185 185 186 169 171 191 188 189 187 189 185 180
144 184 155 152 140 124 67 178 191 148 113 329 348 258 249 279 249 152 244 194 92 150 111 38 34 25 29 39 18 351 284 208 202 160 140 120 97 82 124 161 181 189 188 189
140 81 156 148 166 148 122 182 203 135 113 67 305 300 235 213 251 206 198 209 70 62 50 35 25 30 15 11 9 17 0 245 192 186 182 207 197 198 190 183 191 192 193 200
39 110 136 153 175 153 146 142 139 116 115 146 166 212 259 145 226 254 61 70 65 60 57 39 24 18 13 9 9 11 24 31 11 351 212 210 226 240 173 148 168 197 208 202
100 111 134 177 138 166 135 95 58 67 107 242 191 170 280 113 8 68 69 71 73 65 56 45 22 19 15 11 10 15 23 35 13 8 2 352 259 201 185 187 201 221 224 187
62 352 322 126 110 90 122 147 88 53 359 216 339 126 252 24 21 300 205 109 90 61 51 41 29 15 13 14 10 11 18 27 19 20 17 1 357 6 338 358 315 179 108 46
140 177 249 323 138 155 148 167 150 168 169 188 155 216 292 47 51 43 60 83 76 66 50 49 43 26 11 10 15 13 21 22 15 30 30 13 15 20 36 58 63 53 55 58
131 64 308 72 105 140 169 183 144 105 233 123 180 237 96 90 66 67 65 59 62 57 51 44 44 29 18 7 15 11 17 23 23 20 40 35 26 30 31 38 73 71 65 64
180 103 10 101 111 310 159 155 91 20 137 192 15 273 119 6 15 142 143 123 113 94 62 46 43 26 15 11 356 20 25 27 19 27 37 46 38 37 42 40 49 68 62 60
133 86 10 81 20 94 88 86 47 108 85 144 125 262 156 340 311 215 178 184 156 107 90 65 53 40 24 18 21 22 24 23 22 31 37 48 45 43 56 52 46 59 65 65
27 109 93 80 18 342 74 138 128 125 260 29 100 293 337 53 341 125 179 176 157 124 108 90 65 44 37 30 22 26 25 32 17 34 45 49 52 50 57 58 52 55 59 50
180 15 92 39 10 11 79 82 107 98 71 191 113 273 4 322 234 186 174 210 197 160 148 79 66 62 48 34 27 26 29 35 32 40 55 55 52 53 54 55 53 54 59 55
60 67 128 163 152 131 130 113 72 99 108 158 196 291 239 275 276 273 227 171 190 203 198 169 108 70 62 63 43 25 42 38 50 57 60 58 55 58 58 57 55 57 57 60
78 98 56 49 9 65 123 140 136 119 155 131 223 202 248 223 227 260 230 166 184 202 202 197 183 145 91 63 57 55 42 46 45 60 64 61 59 62 62 59 57 59 58 58
4 121 102 27 2 29 64 87 108 104 95 40 94 276 302 306 4 52 209 197 211 212 200 198 166 159 173 143 97 81 69 63 72 69 68 68 70 67 63 63 63 63 60 56
63 117 62 282 346 7 352 225 175 158 159 140 164 236 336 326 327 348 337 218 218 212 198 190 184 165 158 153 128 114 97 70 73 81 62 64 72 73 64 62 66 65 66 68
113 84 51 140 23 55 248 339 323 204 264 216 278 275 287 276 286 290 281 262 223 215 200 180 167 158 139 129 115 108 90 89 83 74 74 67 77 83 80 79 76 68 62 63
38 105 80 118 159 282 330 186 153 168 266 179 204 305 291 296 269 11 7 341 294 192 193 177 150 142 139 140 133 114 90 77 78 80 90 92 96 100 101 99 100 94 87 76
55 57 100 66 116 183 239 187 217 95 306 181 158 286 307 320 41 261 333 325 342 114 150 146 137 122 132 138 132 123 123 117 111 99 82 76 96 104 106 107 105 104 111 107
17 6 109 98 147 290 247 234 229 85 229 169 188 201 286 38 214 267 311 332 28 47 142 128 128 145 147 140 134 134 137 153 146 132 119 104 97 102 108 104 78 76 84 83
159 125 166 80 61 287 185 79 165 204 184 169 188 203 224 231 292 289 301 313 337 135 123 133 139 147 149 150 148 151 167 152 145 137 125 117 97 101 114 120 102 107 109 107
310 178 180 181 211 239 243 232 235 176 160 198 180 199 214 237 239 272 265 271 258 189 146 146 142 125 146 163 159 164 169 156 145 140 146 137 126 118 121 111 124 97 106 110
253 162 203 87 256 230 240 255 240 212 212 191 211 198 188 212 218 238 233 230 211 204 180 163 147 164 176 179 173 159 157 150 148 150 137 126 113 109 74 99 121 120 137 142
201 128 184 259 272 329 264 231 232 237 233 245 247 210 215 184 234 219 237 233 217 203 200 173 184 188 189 170 169 149 157 150 160 153 149 145 146 134 101 77 169 165 205 179
185 195 180 233 205 171 226 233 172 189 230 237 182 252 241 193 232 198 245 215 195 197 179 200 204 175 194 145 160 163 156 150 147 141 156 166 156 152 160 163 250 261 218 227